DMSP 5D-2 F13 DEB, 40608

Orbit data source: Space-Track

DMSP 5D-2 F13 DEB, 40608 is space debris in SSO originally from a launch on Fri, 24 Mar 1995 UTC launched from the Air Force Western Test Range (AFWTR). Debris objects in space refer to the collection of defunct objects orbiting the Earth. Examples of debris include non-operational satellites, rocket bodies, and fragments generated from explosions, collisions, or faulty payload assembly.

Loading next visibility...
Identifier
40608, 1995-015FF
Orbit
SSO
Country
Flag of USUS
Related business
Manufacturer
Unknown
Mission
Spacecraft
Bus & Motor
Unknown
Mass
Unknown
Launch date (UTC)
1995-03-24 (31 years ago)
Launch vehicle
Unknown
Launch site
Air Force Western Test Range (AFWTR)
Object type
Payload
Rocket body
Debris
Shape & HBR
Unknown shape, 0.1 m
Radar Cross Section
Small (<0.1 m²)

Expand to show TLE details & history
Last TLE update: 1 week ago

TLE from 1 week ago
0 DMSP 5D-2 F13 DEB
1 40608U 95015FF  25309.00998068  .00000518  00000-0  23841-3 0  9992
2 40608  98.6270 324.4261 0030805 231.3954 128.4466 14.25076243547435
Epoch: 2025-11-05T00:14Z
TLE epoch observation values (Epoch: 2025-11-05T00:14:22.330Z)
Latitude
-0.00006°
Longitude
-83.65573°
Altitude
824.97 km
Speed
7.433 km/s
True Right ascension
21h 37m 42s
True Declination
0° 00' 00"
Sunlit
Object was in daylight at epoch
Visualization orbit readout
Latitude
Unknown
Longitude
Unknown
Altitude
Unknown
Speed
Unknown
Apparent Right ascension
Unknown
Apparent Declination
Unknown
Sunlit
N/A
Visualization observer readout
Local Sidereal Time
10:03:43
Azimuth
Unknown
Elevation
Unknown
Doppler factor
Unknown
Orbital elements
Apogee altitude
827.513 km
Perigee altitude
783.255 km
Semi-major axis
7,183.521 km
Eccentricity
0.00308
Inclination
98.627°
RAAN
324.4261°
Arg. of periapsis
231.3954°
True anomaly
128.7224°
Mean anomaly
128.4466°
Eccentric anomaly
128.58457°
Mean motion
3.56482 °/min
Orbital period
100.99 mins
BSTAR
0.00023841
Loading maneuver chart data...
Computing Atmospheric mass density...

Documentation

Showing up to 5 results
|